STARLINK-30488, 57931

Orbit data source: Space-Track

STARLINK-30488, 57931 is a payload satellite owned by SpaceX/Seattle (US) in LEO that was launched on Sun, 24 Sep 2023 UTC via an FALCON 9 launch vehicle from the Air Force Eastern Test Range (AFETR). Payload-class satellites include a variety of spacecraft equipped with specific instruments for various scientific and technological missions. These include communications satellites like Starlink; space stations such as the ISS; scientific satellites like the Hubble; Earth observation satellites from companies like Planet Labs, Umbra, and HawkEye 360; GPS; miniature CubeSats for education and research; and military/defense satellites.

Loading next visibility...
Identifier
57931, 2023-147U
Orbit
LEO
Country
Flag of USUS
Related business
Manufacturer
SpaceX/Seattle
Mission
Partially operational Commercial Communications
Bus & Motor
STARLINK V2M, Unknown motor
Mass
730 kg wet, ~700 kg dry
Launch date (UTC)
2023-09-24 (3 years ago)
Launch vehicle
FALCON 9
Launch site
Air Force Eastern Test Range (AFETR)
Object type
Payload
Rocket body
Debris
Shape & HBR
Box + 2 Pan, 17.7 m
Radar Cross Section
33.884 m², Large (>1 m²)

Expand to show TLE details & history
Last TLE update: 2 days ago

TLE from 2 days ago
0 STARLINK-30488
1 57931U 23147U   26171.25988839  .00000631  00000-0  32445-4 0  9993
2 57931  43.0021 109.4412 0000853 246.4771 113.5991 15.27580926152276
Epoch: 2026-06-20T06:14Z
TLE epoch observation values (Epoch: 2026-06-20T06:14:14.356Z)
Latitude
-0.00004°
Longitude
107.40427°
Altitude
483.056 km
Speed
7.626 km/s
True Right ascension
07h 17m 45s
True Declination
0° 00' 00"
Sunlit
Object was in daylight at epoch
Visualization orbit readout
Latitude
Unknown
Longitude
Unknown
Altitude
Unknown
Speed
Unknown
Apparent Right ascension
Unknown
Apparent Declination
Unknown
Sunlit
N/A
Visualization observer readout
Local Sidereal Time
21:31:26
Azimuth
Unknown
Elevation
Unknown
Doppler factor
Unknown
Orbital elements
Apogee altitude
485.577 km
Perigee altitude
484.406 km
Semi-major axis
6,863.128 km
Eccentricity
0.00009
Inclination
43.0021°
RAAN
109.4412°
Arg. of periapsis
246.4771°
True anomaly
113.60806°
Mean anomaly
113.5991°
Eccentric anomaly
113.60358°
Mean motion
3.81733 °/min
Orbital period
94.31 mins
BSTAR
0.000032445
Loading maneuver chart data...
Computing Atmospheric mass density...
Loading historical data...
Loading historical data...
Loading historical data...
Loading historical data...
Loading historical data...
Loading historical data...
Loading historical data...

Documentation

Showing up to 5 results
|